Location: Avully
(45.9633°N, 6.0228°E)
Time: 21:48:33
(UTC+00:00)

DELTA 2 R/B (1) - Pass Details

Date: 23 May 2024
Orbit: 788 x 802 km, 39.6° (Epoch: 14 June)

Event Time Altitude Azimuth Distance (km) Brightness Sun altitude
Exits shadow 02:07:02 16° 252° (WSW) 1,949 5.1 -14.8°
Maximum altitude 02:10:58 40° 190° (S) 1,150 4.0 -14.4°
Drops below altitude 10° 02:16:06 10° 122° (ESE) 2,345 6.1 -13.8°
Sets 02:18:41 0° 115° (ESE) 3,271 7.0 -13.5°
